OSCAR 7 (AO-7)

Last updated on Mon Sep 15 2025 00:03:09 GMT+0000 (Coordinated Universal Time)

1 07530U 74089B 25257.27038009 -.00000045 00000+0 11859-4 0 9990 2 07530 101.9983 262.5767 0011945 298.8585 72.3803 12.53691480325943
UTC large
Height (km)
Speed (km/s)
/
Latitude / Longitude
Inclination (degrees)
Orbital Period (minutes)
Azimuth
Elevation
Range (km)
Doppler Factor

Next 0 passes for location: London (51.5072 / 0.1276)

Sorry there are no passes over London.